Mojave, CA

9:48 AM PST on November 22, 2019 (GMT -0800)
Mojave

Weather History for KMHV - June, 2019

Change the Weather History Date:

Tuesday, June 4, 2019

  Actual Average Record
Temperature  
Mean Temperature 82 °F -  
Max Temperature 93 °F 86 °F 102 °F (2003)
Min Temperature 71 °F 61 °F 48 °F (1999)
Cooling Degree Days 17    
Growing Degree Days 32 (Base 50)    
Moisture  
Dew Point 48 °F    
Average Humidity 33    
Maximum Humidity 46    
Minimum Humidity 14    
Precipitation  
Precipitation 0.00 in - - ()
Sea Level Pressure  
Sea Level Pressure 29.92 in    
Wind  
Wind Speed 19 mph (NW)    
Max Wind Speed 31 mph    
Max Gust Speed 36 mph    
Visibility 10 miles    
Events      
Averages and records for this station are not official NWS values.
T = Trace of Precipitation, MM = Missing Value Source: NWS Daily Summary

Daily Weather History Graph

Daily Weather History Graph

Search for Another Location

Airport or City:

Astronomy

Jun. 04, 2019 Rise Set
Actual Time 5:38 AM PDT 8:03 PM PDT
Civil Twilight 5:09 AM PDT 8:32 PM PDT
Nautical Twilight 4:33 AM PDT 9:08 PM PDT
Astronomical Twilight 3:53 AM PDT 9:48 PM PDT
Moon 6:51 AM PDT (6/4) 9:36 PM PDT (6/4)
Length of Visible Light 15h 23m
Length of Day
14h 24m
New Moon, 2% of the Moon is Illuminated
Jun 4
New Moon
Jun 9
First Quarter
Jun 17
Full
Jun 25
Last Quarter
Jul 2
New

Hourly Weather History & Observations

Time (PDT) Temp. Heat Index Dew Point Humidity Pressure Visibility Wind Dir Wind Speed Gust Speed Precip Events Conditions
12:00 AM 73.4 °F - 50.0 °F 44% 29.90 in 10.0 mi WNW 29.9 mph - N/A   Clear
12:20 AM 73.4 °F - 50.0 °F 44% 29.90 in 10.0 mi WNW 27.6 mph 33.4 mph N/A   Clear
12:40 AM 73.4 °F - 50.0 °F 44% 29.90 in 10.0 mi WNW 25.3 mph 32.2 mph N/A   Clear
1:00 AM 73.4 °F - 50.0 °F 44% 29.90 in 10.0 mi WNW 27.6 mph 35.7 mph N/A   Clear
1:20 AM 71.6 °F - 48.2 °F 43% 29.90 in 10.0 mi WNW 26.5 mph - N/A   Clear
1:40 AM 71.6 °F - 50.0 °F 46% 29.90 in 10.0 mi WNW 27.6 mph 35.7 mph N/A   Clear
2:00 AM 73.4 °F - 48.2 °F 41% 29.90 in 10.0 mi WNW 31.1 mph - N/A   Clear
2:20 AM 71.6 °F - 50.0 °F 46% 29.90 in 10.0 mi WNW 27.6 mph - N/A   Clear
2:40 AM 71.6 °F - 50.0 °F 46% 29.90 in 10.0 mi WNW 25.3 mph 33.4 mph N/A   Clear
3:00 AM 71.6 °F - 50.0 °F 46% 29.90 in 10.0 mi WNW 24.2 mph 35.7 mph N/A   Clear
3:20 AM 71.6 °F - 48.2 °F 43% 29.90 in 10.0 mi WNW 25.3 mph - N/A   Clear
3:40 AM 71.6 °F - 50.0 °F 46% 29.90 in 10.0 mi WNW 25.3 mph - N/A   Clear
4:00 AM 71.6 °F - 50.0 °F 46% 29.91 in 10.0 mi WNW 21.9 mph 28.8 mph N/A   Clear
4:20 AM 71.6 °F - 50.0 °F 46% 29.91 in 10.0 mi WNW 20.7 mph 27.6 mph N/A   Clear
4:40 AM 71.6 °F - 50.0 °F 46% 29.91 in 10.0 mi WNW 23.0 mph - N/A   Clear
5:00 AM 71.6 °F - 50.0 °F 46% 29.91 in 10.0 mi NW 23.0 mph - N/A   Clear
5:20 AM 71.6 °F - 50.0 °F 46% 29.91 in 10.0 mi NW 17.3 mph 24.2 mph N/A   Clear
5:40 AM 71.6 °F - 50.0 °F 46% 29.92 in 10.0 mi NW 16.1 mph 23.0 mph N/A   Clear
6:00 AM 71.6 °F - 50.0 °F 46% 29.93 in 10.0 mi ENE 5.8 mph 15.0 mph N/A   Clear
6:20 AM 73.4 °F - 48.2 °F 41% 29.94 in 10.0 mi Calm Calm - N/A   Clear
6:40 AM 75.2 °F - 50.0 °F 41% 29.95 in 10.0 mi Calm Calm - N/A   Clear
7:00 AM 77.0 °F - 50.0 °F 39% 29.95 in 10.0 mi Calm Calm - N/A   Clear
7:20 AM 75.2 °F - 50.0 °F 41% 29.96 in 10.0 mi Calm Calm - N/A   Clear
7:40 AM 77.0 °F - 50.0 °F 39% 29.97 in 10.0 mi Calm Calm - N/A   Clear
8:00 AM 77.0 °F - 50.0 °F 39% 29.97 in 10.0 mi Calm Calm - N/A   Clear
8:20 AM 78.8 °F - 50.0 °F 36% 29.97 in 10.0 mi Calm Calm - N/A   Clear
8:40 AM 80.6 °F - 48.2 °F 32% 29.98 in 10.0 mi Calm Calm - N/A   Clear
9:00 AM 80.6 °F - 48.2 °F 32% 29.98 in 10.0 mi Calm Calm - N/A   Clear
9:20 AM 82.4 °F - 48.2 °F 30% 29.98 in 10.0 mi Calm Calm - N/A   Clear
9:40 AM 84.2 °F - 48.2 °F 29% 29.98 in 10.0 mi Calm Calm - N/A   Clear
10:00 AM 84.2 °F - 46.4 °F 27% 29.98 in 10.0 mi Calm Calm - N/A   Clear
10:20 AM 84.2 °F - 44.6 °F 25% 29.98 in 10.0 mi ENE 8.1 mph - N/A   Clear
10:40 AM 86.0 °F - 42.8 °F 22% 29.97 in 10.0 mi Variable 4.6 mph 11.5 mph N/A   Clear
11:00 AM 86.0 °F - 42.8 °F 22% 29.97 in 10.0 mi ENE 8.1 mph - N/A   Clear
11:20 AM 87.8 °F - 41.0 °F 19% 29.97 in 10.0 mi Variable 4.6 mph 13.8 mph N/A   Clear
11:40 AM 89.6 °F - 39.2 °F 17% 29.97 in 10.0 mi East 10.4 mph - N/A   Clear
12:00 PM 89.6 °F - 35.6 °F 15% 29.97 in 10.0 mi Calm Calm - N/A   Clear
12:20 PM 89.6 °F - 37.4 °F 16% 29.96 in 10.0 mi East 10.4 mph - N/A   Clear
12:40 PM 89.6 °F - 37.4 °F 16% 29.95 in 10.0 mi NE 9.2 mph 16.1 mph N/A   Clear
1:00 PM 93.2 °F - 37.4 °F 14% 29.95 in 10.0 mi Variable 4.6 mph 13.8 mph N/A   Clear
1:20 PM 91.4 °F - 37.4 °F 15% 29.94 in 10.0 mi NE 10.4 mph 18.4 mph N/A   Partly Cloudy
1:40 PM 91.4 °F - 37.4 °F 15% 29.94 in 10.0 mi SW 5.8 mph - N/A   Scattered Clouds
2:00 PM 91.4 °F - 39.2 °F 16% 29.93 in 10.0 mi Variable 3.5 mph 13.8 mph N/A   Scattered Clouds
2:20 PM 93.2 °F - 42.8 °F 17% 29.92 in 10.0 mi West 11.5 mph 18.4 mph N/A   Clear
2:40 PM 93.2 °F - 44.6 °F 19% 29.92 in 10.0 mi WNW 17.3 mph 25.3 mph N/A   Partly Cloudy
3:00 PM 93.2 °F - 42.8 °F 17% 29.92 in 10.0 mi West 13.8 mph - N/A   Partly Cloudy
3:20 PM 93.2 °F - 42.8 °F 17% 29.91 in 10.0 mi West 11.5 mph - N/A   Clear
3:40 PM 93.2 °F - 41.0 °F 16% 29.91 in 10.0 mi Calm Calm 18.4 mph N/A   Clear
4:00 PM 91.4 °F - 42.8 °F 18% 29.90 in 10.0 mi West 9.2 mph - N/A   Clear
4:20 PM 91.4 °F - 46.4 °F 21% 29.90 in 10.0 mi WNW 17.3 mph - N/A   Clear
4:40 PM 89.6 °F - 50.0 °F 26% 29.90 in 10.0 mi WNW 21.9 mph - N/A   Clear
5:00 PM 91.4 °F - 50.0 °F 24% 29.89 in 10.0 mi WNW 19.6 mph 29.9 mph N/A   Clear
5:20 PM 91.4 °F - 46.4 °F 21% 29.88 in 10.0 mi WNW 23.0 mph - N/A   Clear
5:40 PM 91.4 °F - 46.4 °F 21% 29.89 in 10.0 mi WNW 23.0 mph - N/A   Clear
6:00 PM 89.6 °F - 48.2 °F 24% 29.88 in 10.0 mi WNW 23.0 mph - N/A   Clear
6:20 PM 87.8 °F - 50.0 °F 27% 29.88 in 10.0 mi WNW 24.2 mph - N/A   Clear
6:40 PM 87.8 °F - 51.8 °F 29% 29.88 in 10.0 mi WNW 24.2 mph - N/A   Clear
7:00 PM 86.0 °F 84.2 °F 53.6 °F 33% 29.89 in 10.0 mi WNW 23.0 mph 32.2 mph N/A   Clear
7:20 PM 84.2 °F 83.0 °F 55.4 °F 37% 29.89 in 10.0 mi WNW 23.0 mph 29.9 mph N/A   Clear
7:40 PM 84.2 °F 82.8 °F 53.6 °F 35% 29.89 in 10.0 mi WNW 20.7 mph 34.5 mph N/A   Clear
8:00 PM 82.4 °F 81.4 °F 53.6 °F 37% 29.89 in 10.0 mi WNW 23.0 mph 31.1 mph N/A   Clear
8:20 PM 80.6 °F - 51.8 °F 37% 29.89 in 10.0 mi WNW 20.7 mph 32.2 mph N/A   Clear
8:40 PM 80.6 °F - 51.8 °F 37% 29.90 in 10.0 mi WNW 25.3 mph 33.4 mph N/A   Clear
9:00 PM 80.6 °F - 50.0 °F 34% 29.90 in 10.0 mi WNW 28.8 mph - N/A   Clear
9:20 PM 80.6 °F - 50.0 °F 34% 29.91 in 10.0 mi WNW 21.9 mph 32.2 mph N/A   Clear
9:40 PM 80.6 °F - 51.8 °F 37% 29.92 in 10.0 mi WNW 19.6 mph 29.9 mph N/A   Clear
10:00 PM 78.8 °F - 51.8 °F 39% 29.92 in 10.0 mi WNW 24.2 mph 31.1 mph N/A   Clear
10:20 PM 78.8 °F - 51.8 °F 39% 29.93 in 10.0 mi WNW 26.5 mph 34.5 mph N/A   Clear
10:40 PM 78.8 °F - 51.8 °F 39% 29.92 in 10.0 mi NW 28.8 mph - N/A   Clear
11:00 PM 78.8 °F - 51.8 °F 39% 29.92 in 10.0 mi NW 23.0 mph 31.1 mph N/A   Clear
11:20 PM 78.8 °F - 51.8 °F 39% 29.92 in 10.0 mi NW 21.9 mph 34.5 mph N/A   Clear
11:40 PM 78.8 °F - 51.8 °F 39% 29.93 in 10.0 mi NW 21.9 mph 32.2 mph N/A   Clear